Preview of NWS' New Version of Forecast
This preview is not operational and should not be used for support decisions.

Regional Weather Roundup (RWR)

Issued by National Weather Service (NWS)

                            
000
ASUS43 KBIS 210902
RWRND 

NORTH DAKOTA REGIONAL WEATHER ROUNDUP
NATIONAL WEATHER SERVICE BISMARCK ND
300 AM CST THU FEB 21 2019

NOTE: "FAIR" INDICATES FEW OR NO CLOUDS BELOW 12,000 FEET WITH NO
SIGNIFICANT WEATHER AND/OR OBSTRUCTIONS TO VISIBILITY.


NDZ001>003-009>011-017-211000-
NORTHWEST NORTH DAKOTA
  
CITY           SKY/WX    TMP DP  RH WIND       PRES   REMARKS
WILLISTON      CLOUDY     1  -5  75 SW6       29.93R WCI -10          
MINOT          CLOUDY     7   3  84 W5        29.90R WCI  -2          
MINOT AFB      CLOUDY     5   0  78 NW7       29.89R WCI  -7          
$$
 
NDZ018>021-031>035-040>046-211000-
SOUTHWEST NORTH DAKOTA
  
CITY           SKY/WX    TMP DP  RH WIND       PRES   REMARKS
BISMARCK       CLOUDY     5   2  87 CALM      29.92R                  
DICKINSON      LGT SNOW   4  -2  76 W13       29.84R WCI -13          
GARRISON         N/A      3   0  87 NW13      29.89R WCI -14          
HETTINGER ARPT CLEAR    -10 -14  82 CALM      29.88R                  
$$
 
NDZ004>008-012>016-024-026-027-054-211000-
NORTHEAST NORTH DAKOTA
  
CITY           SKY/WX    TMP DP  RH WIND       PRES   REMARKS
GRAND FORKS    CLOUDY    14  11  87 N14       29.87R WCI  -1          
GRND FRKS AFB  LGT SNOW  15  12  88 N13       29.87R WCI   1          
DEVILS LAKE    LGT SNOW  11   8  88 NW10      29.88R FOG     WCI  -3  
$$
 
NDZ022-023-025-028>030-036>039-047>053-211000-
SOUTHEAST NORTH DAKOTA
  
CITY           SKY/WX    TMP DP  RH WIND       PRES   REMARKS
FARGO          CLOUDY    16  14  92 NW8       29.85R WCI   5          
JAMESTOWN      LGT SNOW  12   9  87 NW14      29.85R FOG     WCI  -3  
$$